SCP
0 0 0 0 0 -0 -0 -0 0 0 0 0 0 0 0 0 -0 -0 -0 0 0 0 -0 -0 -0 -0 -0 -0 -0 -0 0 0 -0 -0 -0 0 0 0 0 0 0 0 0
0 0 0 0 0 0 -0 -0 -0 0 0 0 0 0 0 0 0 0 -0 -0 0 0 0 0 -0 -0 -0 -0 -0 -0 -0 0 0 -0 -0 0 0 -0 -0 0 0 0 0
0 0 0 -0 -0 -0 0 0 0 0 0 0 0 0 0 0 -0 0 0 -0 0 0 0 0 -0 -0 -0 -0 -0 -0 0 -0 -0 -0 -0 -0 -0 -0 -0 -0 -0 -0 0
0 0 0 0 0 0 0 -0 -0 0 0 0 0 0 0 0 0 0 0 0 0 -0 -0 -0 -0 -0 -0 -0 -0 -0 -0 0 -0 0 0 -0 -0 -0 -0 -0 -0 -0 -0
-0 -0 0 0 0 -0 0 -0 0 0 0 0 0 0 0 0 0 -0 -0 -0 0 -0 -0 -0 -0 -0 -0 -0 -0 -0 0 0 0 0 0 0 0 -0 -0 -0 -0 -0 -0
-0 -0 0 0 -0 0 0 0 0 0 0 0 0 0 -0 0 -0 -0 0 0 0 -0 0 0 -0 -0 0 -0 -0 0 0 0 0 0 -0 -0 -0 0 -0 -0 -0 0 0
-0 -0 -0 -0 -0 -0 0 0 0 0 0 0 0 0 -0 -0 0 -0 -0 -0 0 -0 -0 0 -0 -0 0 0 0 -0 0 0 0 -0 0 -0 -0 -0 0 -0 0 0 0
-0 -0 -0 -0 -0 -0 0 0 0 0 0 0 0 0 0 -0 0 0 0 0 -0 -0 -0 0 0 0 0 0 0 0 0 0 0 0 0 0 0 0 0 0 0 0 0
0 -0 -0 -0 -0 -0 0 0 0 0 0 0 0 0 0 0 0 -0 0 -0 -0 -0 0 0 0 0 0 0 0 0 0 0 0 0 0 0 0 0 0 0 0 0 0
0 -0 -0 0 0 0 0 0 0 0 0 0 0 0 0 0 0 -0 -0 -0 -0 0 0 0 0 0 0 0 0 0 0 0 0 0 0 0 0 0 0 0 0 0 0
-0 0 0 0 0 0 -0 0 0 0 0 0 0 0 0 0 0 0 0 0 0 0 0 0 0 0 0 0 0 0 0 0 0 0 0 0 0 0 0 0 0 0 0
-0 0 0 0 0 0 0 0 -0 -0 0 0 0 0 0 0 0 0 0 0 0 0 0 0 0 0 0 0 0 0 0 0 0 0 0 0 0 0 0 0 0 0 0
0 0 0 0 0 0 0 0 -0 0 0 0 0 0 0 0 0 0 0 0 0 0 0 0 0 0 0 0 0 0 0 0 0 0 0 0 0 0 0 0 0 0 0
-0 0 -0 0 0 0 0 0 0 0 0 0 0 0 0 0 0 0 0 0 0 0 0 0 0 0 0 0 0 0 0 0 0 0 0 0 0 0 0 0 0 0 0
-0 0 -0 0 0 0 -0 -0 -0 -0 0 0 0 0 0 0 0 0 0 0 0 0 0 0 0 0 0 0 0 0 0 0 0 0 0 0 0 0 0 0 0 0 0
-0 -0 -0 -0 -0 0 0 -0 -0 -0 -0 0 0 0 0 0 0 0 0 0 0 0 0 0 0 0 0 0 0 0 0 0 0 0 0 0 0 0 0 0 0 0 0
0 -0 -0 -0 -0 -0 0 -0 -0 -0 -0 0 0 0 0 0 0 0 0 0 0 0 0 0 0 0 0 0 0 0 0 0 0 0 0 0 0 0 0 0 0 0 0
0 0 -0 -0 -0 -0 -0 0 0 0 0 0 0 0 0 0 0 0 0 0 0 0 0 0 0 0 0 0 0 0 0 0 0 0 0 0 0 0 0 0 0 0 0
0 0 0 0 -0 -0 -0 0 0 0 0 0 0 0 0 0 0 0 0 0 0 0 0 0 0 0 0 0 0 0 0 0 0 0 0 0 0 0 0 0 0 0 0
-0 0 0 0 0 0 -0 0 0 0 0 0 0 0 0 0 0 0 0 0 0 0 0 0 0 0 0 0 0 0 0 0 0 0 0 0 0 0 0 0 0 0 0
-0 -0 0 0 0 0 0 0 0 0 0 0 0 0 0 0 0 0 1 0 0 0 0 0 0 0 0 0 0 0 0 0 0 0 0 0 0 0 0 0 0 0 0
-0 -0 -0 0 0 0 0 0 0 1 1 1 1 1 1 0 0 0 0 0 0 1 2 0 0 0 0 0 0 0 0 0 0 0 0 0 0 0 0 0 0 0 0
0 -0 -0 0 0 0 0 0 0 1 1 2 2 2 1 1 0 0 0 0 0 0 0 1 1 1 1 0 0 0 0 0 0 0 0 0 0 0 0 0 0 0 0
1 1 1 1 1 1 0 0 0 2 2 3 3 2 2 1 1 1 1 0 0 0 0 0 1 1 1 0 0 0 0 0 0 0 0 0 0 0 0 0 0 0 0
2 2 1 1 1 2 1 0 0 2 2 3 4 4 3 3 1 0 1 1 1 1 0 0 0 0 0 0 0 0 0 0 0 0 0 0 0 0 0 0 0 0 0
4 3 3 2 1 2 1 0 0 4 4 6 4 4 1 2 1 0 0 2 1 2 1 0 0 0 0 0 0 0 0 0 0 0 0 0 0 0 0 0 0 0 0
Wind_Speed_500mb
10 5 2 6 3 4 4 7 3 6 3 5 5 7 12 8 5 11 6 9 5 4 6 2 3 7 9 10 7 8 5 8 8 8 9 8 5 6 8 8 7 5 6
10 7 6 4 4 3 5 8 11 6 3 2 2 3 9 4 4 10 8 8 9 2 4 4 9 5 6 8 10 8 7 7 9 10 9 9 9 7 9 9 8 8 8
9 4 7 8 7 8 6 5 8 5 3 1 3 8 9 3 2 8 3 3 6 4 3 3 3 3 7 7 6 10 8 8 9 10 11 12 14 12 9 11 11 11 10
16 13 9 8 12 12 14 10 10 14 9 12 8 8 9 7 2 2 2 0 2 3 1 4 4 8 8 3 8 10 12 16 12 13 12 12 13 14 13 13 16 15 16
23 18 12 11 12 10 9 9 11 12 10 13 13 9 1 10 3 4 4 3 2 1 3 6 0 0 7 7 5 4 8 11 17 20 16 17 15 17 13 13 16 18 18
23 23 18 16 12 12 14 12 12 10 10 12 15 8 3 9 6 4 4 1 1 1 1 7 10 6 6 8 9 5 6 10 13 17 18 21 18 21 20 20 21 23 22
24 22 19 21 17 18 15 14 14 15 13 18 5 5 4 4 6 7 9 5 4 4 3 3 7 12 10 9 6 5 3 7 13 12 13 16 21 20 21 22 24 24 24
29 22 23 21 19 19 18 20 16 16 15 11 4 7 7 4 11 8 6 2 4 6 7 6 1 6 6 4 5 5 4 2 3 8 8 8 10 14 17 20 23 23 23
36 30 26 27 26 22 22 23 24 16 14 11 8 10 6 6 13 15 11 6 9 10 9 14 15 9 4 1 2 4 6 6 7 6 4 1 5 9 13 15 17 20 22
43 36 33 32 31 30 25 23 23 19 15 12 11 17 17 9 12 10 19 16 12 9 6 6 9 12 13 12 10 8 10 15 16 14 12 9 6 7 9 11 12 14 17
53 49 44 38 34 33 29 24 22 19 16 14 16 12 19 19 19 13 13 16 23 18 12 10 7 5 6 8 11 13 14 14 13 12 13 15 15 13 11 12 13 15 15
47 47 45 45 40 38 33 27 26 23 19 17 17 19 17 12 15 16 16 19 19 20 22 20 20 16 11 8 5 3 5 5 4 7 10 13 14 17 15 12 11 12 14
47 51 51 47 43 38 32 30 32 28 23 20 17 22 21 20 17 15 14 12 12 19 22 19 21 27 26 22 19 15 11 8 7 9 12 14 15 18 17 16 16 16 18
49 49 48 46 44 41 39 36 34 33 29 26 22 21 25 24 21 19 17 14 11 12 18 19 21 21 28 31 33 29 27 23 20 19 19 20 21 21 21 22 22 23 25
53 54 52 49 48 47 44 41 39 38 36 30 28 24 26 26 25 23 21 20 15 14 12 12 11 14 15 18 20 31 37 37 33 31 31 33 32 31 30 30 29 30 31
58 61 60 55 53 49 48 46 45 43 43 38 35 30 25 24 24 25 23 23 22 17 15 11 10 12 13 13 18 22 27 28 30 33 38 39 38 38 38 36 34 35 40
65 66 68 67 63 58 53 53 52 50 50 46 43 38 31 26 25 25 26 28 27 26 20 19 18 16 16 17 17 15 17 20 22 30 38 40 41 44 42 39 39 44 44
68 69 70 74 73 67 60 59 58 59 59 54 48 45 41 35 32 31 29 30 30 27 25 24 21 20 20 21 23 22 20 20 25 32 37 32 38 36 34 40 43 42 39
76 74 74 75 79 80 74 67 64 63 63 59 53 49 46 45 41 41 36 34 34 31 31 28 22 29 28 25 24 27 27 32 37 39 39 35 36 42 45 46 43 39 43
84 82 80 78 78 83 82 76 71 68 65 63 60 55 52 49 46 48 45 41 38 39 37 37 31 31 33 33 32 33 28 31 37 36 39 38 38 38 37 36 38 43 45
92 86 84 82 81 84 90 89 84 80 76 69 68 62 61 57 52 51 51 47 44 42 43 39 35 29 32 36 37 28 39 39 46 47 41 34 26 24 26 36 42 40 39
98 96 95 90 88 89 93 94 88 87 85 77 75 69 68 64 64 59 54 52 54 54 52 41 35 36 37 36 38 37 38 41 40 42 45 34 27 28 28 32 39 36 36
99 104 102 100 98 93 92 93 93 91 91 87 82 76 77 72 66 70 63 61 61 59 57 53 48 45 42 38 40 44 46 39 37 32 39 31 24 33 32 31 35 32 38
99 105 108 106 104 98 94 93 94 94 98 97 89 85 81 73 70 67 62 74 66 61 58 56 50 46 42 40 43 48 43 45 42 39 31 28 27 31 28 27 38 43 42
95 102 108 110 110 104 98 96 96 96 102 104 95 91 80 74 66 65 56 61 59 61 56 49 45 42 41 42 43 44 38 37 34 25 24 22 24 27 31 35 29 31 36
92 93 101 108 112 112 107 104 101 102 103 105 105 97 87 75 67 59 50 57 56 59 51 49 42 38 36 34 28 28 23 20 23 22 16 17 24 31 32 30 26 30 30
Wind_Direction_500mb
196 200 191 188 215 301 318 11 336 299 1 101 44 75 43 40 58 90 79 33 52 60 210 190 173 198 205 209 193 206 226 223 230 223 214 215 227 247 278 284 278 276 298
199 238 236 214 269 238 289 342 354 353 23 303 293 92 37 0 200 121 76 33 357 162 95 208 226 222 211 218 215 227 242 240 239 238 238 235 246 263 275 268 271 282 288
208 258 246 244 265 275 258 313 347 319 332 274 336 324 325 305 11 170 117 61 46 101 112 93 54 261 249 247 242 228 230 240 244 250 246 245 249 250 264 274 266 276 285
236 253 267 275 292 280 273 293 337 349 320 337 305 288 330 202 35 170 167 250 121 162 125 97 90 77 49 330 261 253 241 241 245 252 247 251 265 260 263 267 266 269 280
240 245 259 280 299 286 269 301 303 340 319 309 327 326 320 174 170 163 206 191 224 265 271 250 260 71 26 19 7 248 257 241 235 242 249 257 261 267 261 264 267 270 273
239 243 243 266 278 266 277 282 289 314 313 306 310 287 145 171 200 233 96 132 45 221 262 230 222 260 281 320 322 313 257 262 263 255 245 254 255 266 275 275 272 274 276
238 228 246 260 273 273 285 278 294 301 312 319 282 261 202 166 197 140 139 90 69 115 63 139 214 242 253 269 298 344 324 295 249 254 265 259 260 260 264 269 268 267 267
236 244 249 262 269 279 282 280 285 294 300 325 217 191 195 196 202 190 187 97 89 119 85 50 317 244 231 213 265 285 297 255 233 235 245 259 266 268 272 274 270 269 271
242 256 248 248 255 270 277 278 270 284 284 298 229 189 188 200 190 218 223 185 138 125 102 67 72 80 111 124 17 35 52 77 88 94 106 199 269 275 275 272 271 273 275
241 249 245 241 251 262 275 284 258 268 274 288 241 215 212 202 203 209 221 215 199 178 156 101 83 86 85 88 86 80 85 84 84 76 61 37 358 307 281 277 277 276 274
246 252 244 237 247 257 268 270 264 268 269 273 239 237 226 229 232 228 232 224 227 224 223 216 209 167 124 103 95 89 103 107 87 59 33 25 19 4 332 296 276 273 278
243 234 234 233 248 250 256 262 258 259 258 258 249 236 237 232 234 231 238 246 239 236 235 245 243 232 220 211 194 144 123 110 87 22 3 0 358 355 345 336 315 295 282
238 227 229 236 243 242 247 254 249 249 252 253 253 236 237 235 242 240 244 252 249 242 245 245 249 249 241 237 237 240 256 269 293 318 319 319 323 328 332 321 315 311 303
241 229 225 231 239 243 244 247 244 240 241 245 249 239 230 227 233 241 238 229 242 242 254 259 271 259 254 254 253 249 253 259 271 279 283 285 288 295 299 307 304 300 300
240 229 228 239 236 240 241 240 240 236 237 241 248 245 231 229 234 242 241 237 235 253 262 270 243 251 253 263 270 253 254 260 263 267 278 283 279 281 285 286 293 296 298
236 233 231 235 231 236 236 235 236 234 233 235 241 247 246 242 244 242 238 238 243 239 253 240 255 250 248 260 255 257 265 266 265 271 279 280 270 274 278 280 286 293 295
235 234 232 233 234 233 234 236 236 235 233 233 234 241 244 248 251 252 251 246 246 249 244 257 249 252 256 262 263 258 260 269 287 302 296 287 275 278 275 277 284 291 294
235 235 234 232 233 234 235 236 238 237 233 231 232 237 241 244 247 251 251 252 247 247 242 250 248 249 251 260 251 249 250 253 287 308 319 301 282 276 273 278 285 288 290
235 234 236 235 233 234 235 235 236 238 237 235 235 237 240 243 245 249 249 251 249 246 246 242 242 249 252 257 251 258 261 276 295 309 320 309 285 279 280 284 288 291 295
235 234 235 237 236 234 233 235 234 235 236 235 236 237 240 241 244 248 249 249 249 249 249 251 248 250 249 252 255 264 267 274 281 292 307 312 297 291 280 276 281 290 292
235 233 234 236 238 236 234 233 233 234 237 236 238 239 242 244 245 248 246 246 249 249 247 248 250 247 246 247 248 257 266 275 284 290 296 304 286 285 283 289 291 291 287
235 234 233 234 236 237 237 235 234 235 237 238 240 242 246 248 249 250 247 246 247 245 244 240 244 245 260 261 259 263 275 277 283 296 305 291 291 284 283 286 287 289 289
235 234 233 234 236 238 240 240 237 237 240 241 243 245 248 250 252 252 253 255 243 243 244 247 249 256 262 268 270 273 271 276 282 283 292 289 290 290 295 291 291 285 291
235 235 235 234 236 239 241 243 243 239 244 246 246 248 250 253 256 259 253 257 245 240 239 244 247 253 259 268 270 266 266 285 284 288 284 289 293 291 293 292 289 290 290
239 237 238 239 238 239 241 242 243 241 241 245 245 246 246 250 253 257 260 247 250 244 238 237 241 248 255 263 259 257 270 282 284 293 280 290 301 294 297 294 289 293 303
242 241 239 241 244 244 243 244 243 244 242 239 240 243 243 243 245 244 234 241 246 241 239 234 236 243 255 255 248 251 259 260 276 287 270 299 301 302 305 294 287 302 306
Wind_Speed_850mb
10 5 2 6 3 4 4 7 3 6 3 5 5 7 12 8 5 11 6 9 5 4 6 2 3 7 9 10 7 8 5 8 8 8 9 8 5 6 8 8 7 5 6
10 7 6 4 4 3 5 8 11 6 3 2 2 3 9 4 4 10 8 8 9 2 4 4 9 5 6 8 10 8 7 7 9 10 9 9 9 7 9 9 8 8 8
9 4 7 8 7 8 6 5 8 5 3 1 3 8 9 3 2 8 3 3 6 4 3 3 3 3 7 7 6 10 8 8 9 10 11 12 14 12 9 11 11 11 10
16 13 9 8 12 12 14 10 10 14 9 12 8 8 9 7 2 2 2 0 2 3 1 4 4 8 8 3 8 10 12 16 12 13 12 12 13 14 13 13 16 15 16
23 18 12 11 12 10 9 9 11 12 10 13 13 9 1 10 3 4 4 3 2 1 3 6 0 0 7 7 5 4 8 11 17 20 16 17 15 17 13 13 16 18 18
23 23 18 16 12 12 14 12 12 10 10 12 15 8 3 9 6 4 4 1 1 1 1 7 10 6 6 8 9 5 6 10 13 17 18 21 18 21 20 20 21 23 22
24 22 19 21 17 18 15 14 14 15 13 18 5 5 4 4 6 7 9 5 4 4 3 3 7 12 10 9 6 5 3 7 13 12 13 16 21 20 21 22 24 24 24
29 22 23 21 19 19 18 20 16 16 15 11 4 7 7 4 11 8 6 2 4 6 7 6 1 6 6 4 5 5 4 2 3 8 8 8 10 14 17 20 23 23 23
36 30 26 27 26 22 22 23 24 16 14 11 8 10 6 6 13 15 11 6 9 10 9 14 15 9 4 1 2 4 6 6 7 6 4 1 5 9 13 15 17 20 22
43 36 33 32 31 30 25 23 23 19 15 12 11 17 17 9 12 10 19 16 12 9 6 6 9 12 13 12 10 8 10 15 16 14 12 9 6 7 9 11 12 14 17
53 49 44 38 34 33 29 24 22 19 16 14 16 12 19 19 19 13 13 16 23 18 12 10 7 5 6 8 11 13 14 14 13 12 13 15 15 13 11 12 13 15 15
47 47 45 45 40 38 33 27 26 23 19 17 17 19 17 12 15 16 16 19 19 20 22 20 20 16 11 8 5 3 5 5 4 7 10 13 14 17 15 12 11 12 14
47 51 51 47 43 38 32 30 32 28 23 20 17 22 21 20 17 15 14 12 12 19 22 19 21 27 26 22 19 15 11 8 7 9 12 14 15 18 17 16 16 16 18
49 49 48 46 44 41 39 36 34 33 29 26 22 21 25 24 21 19 17 14 11 12 18 19 21 21 28 31 33 29 27 23 20 19 19 20 21 21 21 22 22 23 25
53 54 52 49 48 47 44 41 39 38 36 30 28 24 26 26 25 23 21 20 15 14 12 12 11 14 15 18 20 31 37 37 33 31 31 33 32 31 30 30 29 30 31
58 61 60 55 53 49 48 46 45 43 43 38 35 30 25 24 24 25 23 23 22 17 15 11 10 12 13 13 18 22 27 28 30 33 38 39 38 38 38 36 34 35 40
65 66 68 67 63 58 53 53 52 50 50 46 43 38 31 26 25 25 26 28 27 26 20 19 18 16 16 17 17 15 17 20 22 30 38 40 41 44 42 39 39 44 44
68 69 70 74 73 67 60 59 58 59 59 54 48 45 41 35 32 31 29 30 30 27 25 24 21 20 20 21 23 22 20 20 25 32 37 32 38 36 34 40 43 42 39
76 74 74 75 79 80 74 67 64 63 63 59 53 49 46 45 41 41 36 34 34 31 31 28 22 29 28 25 24 27 27 32 37 39 39 35 36 42 45 46 43 39 43
84 82 80 78 78 83 82 76 71 68 65 63 60 55 52 49 46 48 45 41 38 39 37 37 31 31 33 33 32 33 28 31 37 36 39 38 38 38 37 36 38 43 45
92 86 84 82 81 84 90 89 84 80 76 69 68 62 61 57 52 51 51 47 44 42 43 39 35 29 32 36 37 28 39 39 46 47 41 34 26 24 26 36 42 40 39
98 96 95 90 88 89 93 94 88 87 85 77 75 69 68 64 64 59 54 52 54 54 52 41 35 36 37 36 38 37 38 41 40 42 45 34 27 28 28 32 39 36 36
99 104 102 100 98 93 92 93 93 91 91 87 82 76 77 72 66 70 63 61 61 59 57 53 48 45 42 38 40 44 46 39 37 32 39 31 24 33 32 31 35 32 38
99 105 108 106 104 98 94 93 94 94 98 97 89 85 81 73 70 67 62 74 66 61 58 56 50 46 42 40 43 48 43 45 42 39 31 28 27 31 28 27 38 43 42
95 102 108 110 110 104 98 96 96 96 102 104 95 91 80 74 66 65 56 61 59 61 56 49 45 42 41 42 43 44 38 37 34 25 24 22 24 27 31 35 29 31 36
92 93 101 108 112 112 107 104 101 102 103 105 105 97 87 75 67 59 50 57 56 59 51 49 42 38 36 34 28 28 23 20 23 22 16 17 24 31 32 30 26 30 30
Wind_Direction_850mb
196 200 191 188 215 301 318 11 336 299 1 101 44 75 43 40 58 90 79 33 52 60 210 190 173 198 205 209 193 206 226 223 230 223 214 215 227 247 278 284 278 276 298
199 238 236 214 269 238 289 342 354 353 23 303 293 92 37 0 200 121 76 33 357 162 95 208 226 222 211 218 215 227 242 240 239 238 238 235 246 263 275 268 271 282 288
208 258 246 244 265 275 258 313 347 319 332 274 336 324 325 305 11 170 117 61 46 101 112 93 54 261 249 247 242 228 230 240 244 250 246 245 249 250 264 274 266 276 285
236 253 267 275 292 280 273 293 337 349 320 337 305 288 330 202 35 170 167 250 121 162 125 97 90 77 49 330 261 253 241 241 245 252 247 251 265 260 263 267 266 269 280
240 245 259 280 299 286 269 301 303 340 319 309 327 326 320 174 170 163 206 191 224 265 271 250 260 71 26 19 7 248 257 241 235 242 249 257 261 267 261 264 267 270 273
239 243 243 266 278 266 277 282 289 314 313 306 310 287 145 171 200 233 96 132 45 221 262 230 222 260 281 320 322 313 257 262 263 255 245 254 255 266 275 275 272 274 276
238 228 246 260 273 273 285 278 294 301 312 319 282 261 202 166 197 140 139 90 69 115 63 139 214 242 253 269 298 344 324 295 249 254 265 259 260 260 264 269 268 267 267
236 244 249 262 269 279 282 280 285 294 300 325 217 191 195 196 202 190 187 97 89 119 85 50 317 244 231 213 265 285 297 255 233 235 245 259 266 268 272 274 270 269 271
242 256 248 248 255 270 277 278 270 284 284 298 229 189 188 200 190 218 223 185 138 125 102 67 72 80 111 124 17 35 52 77 88 94 106 199 269 275 275 272 271 273 275
241 249 245 241 251 262 275 284 258 268 274 288 241 215 212 202 203 209 221 215 199 178 156 101 83 86 85 88 86 80 85 84 84 76 61 37 358 307 281 277 277 276 274
246 252 244 237 247 257 268 270 264 268 269 273 239 237 226 229 232 228 232 224 227 224 223 216 209 167 124 103 95 89 103 107 87 59 33 25 19 4 332 296 276 273 278
243 234 234 233 248 250 256 262 258 259 258 258 249 236 237 232 234 231 238 246 239 236 235 245 243 232 220 211 194 144 123 110 87 22 3 0 358 355 345 336 315 295 282
238 227 229 236 243 242 247 254 249 249 252 253 253 236 237 235 242 240 244 252 249 242 245 245 249 249 241 237 237 240 256 269 293 318 319 319 323 328 332 321 315 311 303
241 229 225 231 239 243 244 247 244 240 241 245 249 239 230 227 233 241 238 229 242 242 254 259 271 259 254 254 253 249 253 259 271 279 283 285 288 295 299 307 304 300 300
240 229 228 239 236 240 241 240 240 236 237 241 248 245 231 229 234 242 241 237 235 253 262 270 243 251 253 263 270 253 254 260 263 267 278 283 279 281 285 286 293 296 298
236 233 231 235 231 236 236 235 236 234 233 235 241 247 246 242 244 242 238 238 243 239 253 240 255 250 248 260 255 257 265 266 265 271 279 280 270 274 278 280 286 293 295
235 234 232 233 234 233 234 236 236 235 233 233 234 241 244 248 251 252 251 246 246 249 244 257 249 252 256 262 263 258 260 269 287 302 296 287 275 278 275 277 284 291 294
235 235 234 232 233 234 235 236 238 237 233 231 232 237 241 244 247 251 251 252 247 247 242 250 248 249 251 260 251 249 250 253 287 308 319 301 282 276 273 278 285 288 290
235 234 236 235 233 234 235 235 236 238 237 235 235 237 240 243 245 249 249 251 249 246 246 242 242 249 252 257 251 258 261 276 295 309 320 309 285 279 280 284 288 291 295
235 234 235 237 236 234 233 235 234 235 236 235 236 237 240 241 244 248 249 249 249 249 249 251 248 250 249 252 255 264 267 274 281 292 307 312 297 291 280 276 281 290 292
235 233 234 236 238 236 234 233 233 234 237 236 238 239 242 244 245 248 246 246 249 249 247 248 250 247 246 247 248 257 266 275 284 290 296 304 286 285 283 289 291 291 287
235 234 233 234 236 237 237 235 234 235 237 238 240 242 246 248 249 250 247 246 247 245 244 240 244 245 260 261 259 263 275 277 283 296 305 291 291 284 283 286 287 289 289
235 234 233 234 236 238 240 240 237 237 240 241 243 245 248 250 252 252 253 255 243 243 244 247 249 256 262 268 270 273 271 276 282 283 292 289 290 290 295 291 291 285 291
235 235 235 234 236 239 241 243 243 239 244 246 246 248 250 253 256 259 253 257 245 240 239 244 247 253 259 268 270 266 266 285 284 288 284 289 293 291 293 292 289 290 290
239 237 238 239 238 239 241 242 243 241 241 245 245 246 246 250 253 257 260 247 250 244 238 237 241 248 255 263 259 257 270 282 284 293 280 290 301 294 297 294 289 293 303
242 241 239 241 244 244 243 244 243 244 242 239 240 243 243 243 245 244 234 241 246 241 239 234 236 243 255 255 248 251 259 260 276 287 270 299 301 302 305 294 287 302 306